| time (UTC) | temp F | wind direction | speed MPH | gust MPH | rain 1hr in | rain 24hr in | rain mn in | humidity % | barometer mb |
| 20260902210848 | 52 | 329 | 1.0 | 5.0 | 0.00 | 0.00 | 0.00 | 73 | 1011.2 |
| 20260902210348 | 52 | 329 | 1.0 | 5.0 | 0.00 | 0.00 | 0.00 | 73 | 1011.1 |
| 20260902205849 | 52 | 329 | 1.0 | 5.0 | 0.00 | 0.00 | 0.00 | 72 | 1011.0 |
| 20260902205347 | 52 | 329 | 2.0 | 5.0 | 0.00 | 0.00 | 0.00 | 72 | 1010.9 |
| 20260902204848 | 53 | 329 | 2.0 | 5.0 | 0.00 | 0.00 | 0.00 | 71 | 1010.7 |
| 20260902204346 | 53 | 328 | 2.0 | 5.0 | 0.00 | 0.00 | 0.00 | 70 | 1010.7 |
| 20260902203846 | 54 | 328 | 3.0 | 11.0 | 0.00 | 0.00 | 0.00 | 69 | 1010.7 |
| 20260902203344 | 54 | 320 | 4.0 | 11.0 | 0.00 | 0.00 | 0.00 | 69 | 1010.6 |
| 20260902202844 | 54 | 342 | 4.0 | 9.0 | 0.00 | 0.00 | 0.00 | 69 | 1010.6 |
| 20260902202345 | 54 | 335 | 4.0 | 10.0 | 0.00 | 0.00 | 0.00 | 69 | 1010.6 |
| 20260902201845 | 54 | 321 | 4.0 | 10.0 | 0.00 | 0.00 | 0.00 | 69 | 1010.6 |
| 20260902201350 | 54 | 326 | 4.0 | 10.0 | 0.00 | 0.00 | 0.00 | 69 | 1010.6 |
| 20260902201344 | 54 | 333 | 4.0 | 9.0 | 0.00 | 0.00 | 0.00 | 69 | 1010.6 |
| 20260902200344 | 53 | 331 | 4.0 | 10.0 | 0.00 | 0.00 | 0.00 | 70 | 1010.7 |
| 20260902195844 | 53 | 351 | 4.0 | 8.0 | 0.00 | 0.00 | 0.00 | 70 | 1010.7 |
| 20260902195344 | 53 | 343 | 3.0 | 7.0 | 0.00 | 0.00 | 0.00 | 70 | 1010.7 |
| 20260902194844 | 53 | 347 | 3.0 | 9.0 | 0.00 | 0.00 | 0.00 | 70 | 1010.7 |
| 20260902194350 | 52 | 335 | 2.0 | 7.0 | 0.00 | 0.00 | 0.00 | 70 | 1010.6 |
| 20260902194344 | 53 | 345 | 3.0 | 9.0 | 0.00 | 0.00 | 0.00 | 70 | 1010.6 |
| 20260902193346 | 52 | 334 | 3.0 | 7.0 | 0.00 | 0.00 | 0.00 | 70 | 1010.7 |
| 20260902192845 | 52 | 327 | 4.0 | 7.0 | 0.00 | 0.00 | 0.00 | 70 | 1010.7 |
| 20260902192344 | 52 | 339 | 3.0 | 8.0 | 0.00 | 0.00 | 0.00 | 70 | 1010.7 |
| 20260902191849 | 52 | 347 | 2.0 | 5.0 | 0.00 | 0.00 | 0.00 | 70 | 1010.6 |
| 20260902191843 | 52 | 350 | 2.0 | 8.0 | 0.00 | 0.00 | 0.00 | 70 | 1010.5 |
| 20260902190845 | 53 | 347 | 2.0 | 4.0 | 0.00 | 0.00 | 0.00 | 69 | 1010.5 |
| 20260902190344 | 53 | 347 | 2.0 | 4.0 | 0.00 | 0.00 | 0.00 | 69 | 1010.3 |
| 20260902185853 | 53 | 350 | 4.0 | 7.0 | 0.00 | 0.00 | 0.00 | 68 | 1010.3 |
| 20260902185844 | 53 | 347 | 3.0 | 7.0 | 0.00 | 0.00 | 0.00 | 68 | 1010.3 |
| 20260902185346 | 53 | 347 | 4.0 | 7.0 | 0.00 | 0.00 | 0.00 | 68 | 1010.3 |
| 20260902185013 | 53 | 351 | 3.0 | 5.0 | 0.00 | 0.00 | 0.00 | 68 | 1010.2 |
| 20260902183844 | 54 | 351 | 3.0 | 6.0 | 0.00 | 0.00 | 0.00 | 67 | 1010.1 |
| 20260902183344 | 54 | 351 | 3.0 | 7.0 | 0.00 | 0.00 | 0.00 | 67 | 1010.2 |
| 20260902182844 | 54 | 345 | 3.0 | 7.0 | 0.00 | 0.00 | 0.00 | 66 | 1010.2 |
| 20260902182342 | 54 | 345 | 3.0 | 6.0 | 0.00 | 0.00 | 0.00 | 66 | 1010.1 |
| 20260902181843 | 55 | 349 | 4.0 | 10.0 | 0.00 | 0.00 | 0.00 | 65 | 1010.0 |
| 20260902181349 | 55 | 316 | 4.0 | 9.0 | 0.00 | 0.00 | 0.00 | 64 | 1010.0 |
| 20260902181342 | 55 | 333 | 4.0 | 10.0 | 0.00 | 0.00 | 0.00 | 64 | 1009.9 |
| 20260902180839 | 55 | 335 | 4.0 | 10.0 | 0.00 | 0.00 | 0.00 | 64 | 1009.9 |
| 20260902180511 | 55 | 4 | 5.0 | 16.0 | 0.00 | 0.00 | 0.00 | 64 | 1010.0 |
| 20260902175338 | 55 | 297 | 5.0 | 16.0 | 0.00 | 0.00 | 0.00 | 64 | 1010.0 |
| 20260902174837 | 55 | 0 | 4.0 | 9.0 | 0.00 | 0.00 | 0.00 | 65 | 1010.1 |
| 20260902174343 | 54 | 318 | 4.0 | 11.0 | 0.00 | 0.00 | 0.00 | 66 | 1010.2 |
| 20260902174337 | 54 | 317 | 4.0 | 11.0 | 0.00 | 0.00 | 0.00 | 65 | 1010.2 |
| 20260902173341 | 54 | 339 | 3.0 | 7.0 | 0.00 | 0.00 | 0.00 | 67 | 1010.3 |
| 20260902173335 | 54 | 339 | 3.0 | 7.0 | 0.00 | 0.00 | 0.00 | 67 | 1010.1 |
| 20260902172834 | 54 | 333 | 3.0 | 9.0 | 0.00 | 0.00 | 0.00 | 67 | 1010.3 |
| 20260902171834 | 54 | 348 | 3.0 | 9.0 | 0.00 | 0.00 | 0.00 | 67 | 1010.4 |
| 20260902171341 | 54 | 326 | 3.0 | 7.0 | 0.00 | 0.00 | 0.00 | 67 | 1010.5 |
| 20260902171335 | 54 | 351 | 3.0 | 8.0 | 0.00 | 0.00 | 0.00 | 67 | 1010.5 |
| 20260902170341 | 54 | 316 | 2.0 | 4.0 | 0.00 | 0.00 | 0.00 | 67 | 1010.6 |
| 20260902170335 | 54 | 318 | 2.0 | 7.0 | 0.00 | 0.00 | 0.00 | 67 | 1010.5 |
| 20260902165332 | 55 | 316 | 2.0 | 7.0 | 0.00 | 0.00 | 0.00 | 66 | 1010.6 |
| 20260902164834 | 55 | 314 | 3.0 | 8.0 | 0.00 | 0.00 | 0.00 | 65 | 1010.6 |
| 20260902164332 | 55 | 316 | 4.0 | 8.0 | 0.00 | 0.00 | 0.00 | 65 | 1010.7 |
| 20260902163832 | 55 | 344 | 3.0 | 8.0 | 0.00 | 0.00 | 0.00 | 65 | 1010.8 |
| 20260902163331 | 55 | 351 | 3.0 | 7.0 | 0.00 | 0.00 | 0.00 | 66 | 1010.9 |
| 20260902162832 | 55 | 322 | 3.0 | 7.0 | 0.00 | 0.00 | 0.00 | 66 | 1010.9 |
| 20260902162333 | 55 | 331 | 4.0 | 8.0 | 0.00 | 0.00 | 0.00 | 66 | 1011.0 |
| 20260902161832 | 55 | 339 | 3.0 | 8.0 | 0.00 | 0.00 | 0.00 | 66 | 1011.1 |
| 20260902161332 | 55 | 309 | 4.0 | 9.0 | 0.00 | 0.00 | 0.00 | 66 | 1011.1 |
| 20260902160832 | 55 | 307 | 4.0 | 10.0 | 0.00 | 0.00 | 0.00 | 66 | 1011.2 |
| 20260902160332 | 55 | 357 | 4.0 | 12.0 | 0.00 | 0.00 | 0.00 | 66 | 1011.2 |
| 20260902155830 | 55 | 289 | 5.0 | 12.0 | 0.00 | 0.00 | 0.00 | 67 | 1011.2 |
| 20260902155330 | 55 | 292 | 5.0 | 10.0 | 0.00 | 0.00 | 0.00 | 67 | 1011.3 |
| 20260902154829 | 54 | 300 | 4.0 | 10.0 | 0.00 | 0.00 | 0.00 | 68 | 1011.2 |
| 20260902154331 | 54 | 305 | 4.0 | 10.0 | 0.00 | 0.00 | 0.00 | 69 | 1011.1 |
| 20260902153829 | 54 | 319 | 4.0 | 8.0 | 0.00 | 0.00 | 0.00 | 69 | 1011.2 |
| 20260902153331 | 54 | 298 | 4.0 | 8.0 | 0.00 | 0.00 | 0.00 | 69 | 1011.3 |
| 20260902152836 | 54 | 324 | 3.0 | 8.0 | 0.00 | 0.00 | 0.00 | 69 | 1011.4 |
| 20260902152830 | 54 | 333 | 3.0 | 8.0 | 0.00 | 0.00 | 0.00 | 69 | 1011.3 |
| 20260902151831 | 54 | 323 | 2.0 | 7.0 | 0.00 | 0.00 | 0.00 | 69 | 1011.4 |
| 20260902151327 | 54 | 322 | 2.0 | 7.0 | 0.00 | 0.00 | 0.00 | 69 | 1011.3 |
| 20260902150829 | 54 | 327 | 2.0 | 7.0 | 0.00 | 0.00 | 0.00 | 69 | 1011.3 |
| 20260902150328 | 54 | 318 | 3.0 | 5.0 | 0.00 | 0.00 | 0.00 | 69 | 1011.3 |
| 20260902145827 | 54 | 320 | 2.0 | 6.0 | 0.00 | 0.00 | 0.00 | 69 | 1011.3 |
| 20260902145328 | 54 | 343 | 2.0 | 6.0 | 0.00 | 0.00 | 0.00 | 69 | 1011.3 |
| 20260902144833 | 54 | 341 | 3.0 | 9.0 | 0.00 | 0.00 | 0.00 | 69 | 1011.3 |
| 20260902144827 | 54 | 335 | 3.0 | 9.0 | 0.00 | 0.00 | 0.00 | 69 | 1011.4 |
| 20260902143829 | 54 | 343 | 2.0 | 8.0 | 0.00 | 0.00 | 0.00 | 68 | 1011.3 |
| 20260902143335 | 54 | 327 | 3.0 | 6.0 | 0.00 | 0.00 | 0.00 | 68 | 1011.3 |
| 20260902143329 | 54 | 328 | 2.0 | 6.0 | 0.00 | 0.00 | 0.00 | 68 | 1011.2 |
| 20260902142951 | 54 | 312 | 2.0 | 5.0 | 0.00 | 0.00 | 0.00 | 68 | 1011.4 |
| 20260902141823 | 54 | 314 | 2.0 | 8.0 | 0.00 | 0.00 | 0.00 | 68 | 1011.5 |
| 20260902141323 | 54 | 314 | 3.0 | 8.0 | 0.00 | 0.00 | 0.00 | 69 | 1011.5 |
| 20260902140822 | 54 | 333 | 2.0 | 6.0 | 0.00 | 0.00 | 0.00 | 69 | 1011.5 |
| 20260902140323 | 54 | 335 | 1.0 | 5.0 | 0.00 | 0.00 | 0.00 | 69 | 1011.5 |
| 20260902135819 | 54 | 334 | 1.0 | 5.0 | 0.00 | 0.00 | 0.00 | 68 | 1011.5 |
| 20260902135321 | 54 | 334 | 2.0 | 5.0 | 0.00 | 0.00 | 0.00 | 68 | 1011.6 |
| 20260902134819 | 54 | 334 | 2.0 | 5.0 | 0.00 | 0.00 | 0.00 | 67 | 1011.7 |
| 20260902134320 | 55 | 334 | 2.0 | 5.0 | 0.00 | 0.00 | 0.00 | 66 | 1011.6 |
| 20260902133820 | 55 | 333 | 2.0 | 6.0 | 0.00 | 0.00 | 0.00 | 66 | 1011.7 |
| 20260902133319 | 55 | 333 | 2.0 | 6.0 | 0.00 | 0.00 | 0.00 | 65 | 1011.7 |
| 20260902132817 | 55 | 330 | 2.0 | 8.0 | 0.00 | 0.00 | 0.00 | 64 | 1011.7 |
| 20260902132318 | 55 | 329 | 2.0 | 8.0 | 0.00 | 0.00 | 0.00 | 63 | 1011.8 |
| 20260902131814 | 55 | 308 | 2.0 | 4.0 | 0.00 | 0.00 | 0.00 | 63 | 1011.9 |
| 20260902131315 | 56 | 307 | 2.0 | 5.0 | 0.00 | 0.00 | 0.00 | 63 | 1012.0 |
| 20260902130815 | 56 | 307 | 3.0 | 7.0 | 0.00 | 0.00 | 0.00 | 63 | 1012.1 |
| 20260902130316 | 56 | 306 | 3.0 | 7.0 | 0.00 | 0.00 | 0.00 | 62 | 1012.1 |
| 20260902125814 | 56 | 322 | 3.0 | 7.0 | 0.00 | 0.00 | 0.00 | 62 | 1012.1 |
| 20260902125316 | 56 | 340 | 4.0 | 12.0 | 0.00 | 0.00 | 0.00 | 61 | 1012.2 |
| 20260902124816 | 56 | 314 | 4.0 | 12.0 | 0.00 | 0.00 | 0.00 | 61 | 1012.3 |
| 20260902124315 | 56 | 337 | 4.0 | 8.0 | 0.00 | 0.00 | 0.00 | 61 | 1012.3 |
| 20260902123814 | 56 | 335 | 5.0 | 9.0 | 0.00 | 0.00 | 0.00 | 61 | 1012.3 |
| 20260902123315 | 56 | 322 | 5.0 | 11.0 | 0.00 | 0.00 | 0.00 | 60 | 1012.4 |
| 20260902122812 | 56 | 303 | 5.0 | 11.0 | 0.00 | 0.00 | 0.00 | 60 | 1012.4 |
| 20260902122312 | 56 | 339 | 5.0 | 11.0 | 0.00 | 0.00 | 0.00 | 60 | 1012.5 |
| 20260902121813 | 56 | 321 | 5.0 | 11.0 | 0.00 | 0.00 | 0.00 | 60 | 1012.6 |
| 20260902121319 | 56 | 316 | 5.0 | 12.0 | 0.00 | 0.00 | 0.00 | 60 | 1012.6 |
| 20260902121313 | 57 | 325 | 5.0 | 11.0 | 0.00 | 0.00 | 0.00 | 60 | 1012.6 |
| 20260902120314 | 57 | 308 | 5.0 | 12.0 | 0.00 | 0.00 | 0.00 | 60 | 1012.6 |
| 20260902115813 | 56 | 300 | 4.0 | 11.0 | 0.00 | 0.00 | 0.00 | 61 | 1012.7 |
| 20260902115314 | 57 | 331 | 4.0 | 8.0 | 0.00 | 0.00 | 0.00 | 60 | 1012.7 |
| 20260902114813 | 57 | 330 | 5.0 | 10.0 | 0.00 | 0.00 | 0.00 | 60 | 1012.7 |
| 20260902114314 | 57 | 302 | 4.0 | 14.0 | 0.00 | 0.00 | 0.00 | 60 | 1012.7 |
| 20260902113811 | 57 | 312 | 4.0 | 14.0 | 0.00 | 0.00 | 0.00 | 60 | 1012.6 |
| 20260902113316 | 57 | 322 | 5.0 | 9.0 | 0.00 | 0.00 | 0.00 | 60 | 1012.7 |
| 20260902113310 | 57 | 316 | 5.0 | 10.0 | 0.00 | 0.00 | 0.00 | 60 | 1012.6 |
| 20260902112940 | 57 | 305 | 6.0 | 14.0 | 0.00 | 0.00 | 0.00 | 61 | 1012.8 |
| 20260902112500 | 58 | 299 | 5.0 | 14.0 | 0.00 | 0.00 | 0.00 | 61 | 1012.7 |
| 20260902111311 | 58 | 337 | 5.0 | 14.0 | 0.00 | 0.00 | 0.00 | 62 | 1012.8 |
| 20260902110809 | 58 | 303 | 7.0 | 15.0 | 0.00 | 0.00 | 0.00 | 62 | 1012.8 |
| 20260902110310 | 58 | 299 | 7.0 | 15.0 | 0.00 | 0.00 | 0.00 | 62 | 1012.8 |
| 20260902105808 | 58 | 319 | 5.0 | 14.0 | 0.00 | 0.00 | 0.00 | 64 | 1012.8 |
| 20260902105308 | 58 | 318 | 3.0 | 14.0 | 0.00 | 0.00 | 0.00 | 67 | 1012.8 |
| 20260902104810 | 57 | 341 | 2.0 | 11.0 | 0.00 | 0.00 | 0.00 | 68 | 1012.7 |
| 20260902104314 | 57 | 270 | 1.0 | 6.0 | 0.00 | 0.00 | 0.00 | 69 | 1012.7 |
| 20260902104308 | 57 | 296 | 1.0 | 11.0 | 0.00 | 0.00 | 0.00 | 69 | 1012.7 |
| 20260902103311 | 57 | 272 | 1.0 | 6.0 | 0.00 | 0.00 | 0.00 | 70 | 1012.7 |
| 20260902102815 | 57 | 165 | 0.0 | 0.0 | 0.00 | 0.00 | 0.00 | 71 | 1012.7 |
| 20260902102809 | 57 | 166 | 0.0 | 2.0 | 0.00 | 0.00 | 0.00 | 71 | 1012.8 |
| 20260902101814 | 57 | 165 | 0.0 | 0.0 | 0.00 | 0.00 | 0.00 | 71 | 1012.7 |
| 20260902101808 | 57 | 165 | 0.0 | 0.0 | 0.00 | 0.00 | 0.00 | 71 | 1012.7 |
| 20260902101433 | 57 | 165 | 0.0 | 0.0 | 0.00 | 0.00 | 0.00 | 72 | 1012.8 |
| 20260902100308 | 57 | 165 | 0.0 | 0.0 | 0.00 | 0.00 | 0.00 | 71 | 1012.7 |
| 20260902095808 | 57 | 165 | 0.0 | 0.0 | 0.00 | 0.00 | 0.00 | 71 | 1012.7 |
| 20260902095307 | 57 | 165 | 0.0 | 0.0 | 0.00 | 0.00 | 0.00 | 71 | 1012.6 |
| 20260902094806 | 56 | 165 | 0.0 | 0.0 | 0.00 | 0.00 | 0.00 | 71 | 1012.6 |
| 20260902094307 | 56 | 165 | 0.0 | 0.0 | 0.00 | 0.00 | 0.00 | 71 | 1012.5 |
| 20260902093812 | 56 | 165 | 0.0 | 1.0 | 0.00 | 0.00 | 0.00 | 71 | 1012.3 |
| 20260902093806 | 56 | 165 | 0.0 | 1.0 | 0.00 | 0.00 | 0.00 | 71 | 1012.5 |
| 20260902093305 | 56 | 165 | 0.0 | 1.0 | 0.00 | 0.00 | 0.00 | 71 | 1012.4 |
| 20260902092306 | 56 | 165 | 0.0 | 0.0 | 0.00 | 0.00 | 0.00 | 71 | 1012.3 |
| 20260902091804 | 56 | 165 | 0.0 | 0.0 | 0.00 | 0.00 | 0.00 | 71 | 1012.3 |
| 20260902091304 | 56 | 165 | 0.0 | 0.0 | 0.00 | 0.00 | 0.00 | 70 | 1012.2 |
| 20260902090807 | 56 | 165 | 0.0 | 0.0 | 0.00 | 0.00 | 0.00 | 70 | 1012.2 |
| 20260902090310 | 56 | 165 | 0.0 | 0.0 | 0.00 | 0.00 | 0.00 | 69 | 1012.2 |
| 20260902090305 | 56 | 165 | 0.0 | 1.0 | 0.00 | 0.00 | 0.00 | 70 | 1012.1 |
| 20260902085805 | 56 | 165 | 0.0 | 1.0 | 0.00 | 0.00 | 0.00 | 69 | 1012.1 |
| 20260902084804 | 56 | 165 | 0.0 | 1.0 | 0.00 | 0.00 | 0.00 | 69 | 1012.2 |
| 20260902084304 | 56 | 165 | 0.0 | 1.0 | 0.00 | 0.00 | 0.00 | 69 | 1012.1 |
| 20260902083804 | 57 | 165 | 0.0 | 1.0 | 0.00 | 0.00 | 0.00 | 69 | 1012.0 |
| 20260902083304 | 57 | 165 | 0.0 | 0.0 | 0.00 | 0.00 | 0.00 | 69 | 1012.1 |
| 20260902082806 | 57 | 165 | 0.0 | 0.0 | 0.00 | 0.00 | 0.00 | 68 | 1012.1 |
| 20260902082309 | 57 | 165 | 0.0 | 1.0 | 0.00 | 0.00 | 0.00 | 68 | 1012.1 |
| 20260902081811 | 57 | 165 | 0.0 | 1.0 | 0.00 | 0.00 | 0.00 | 67 | 1012.1 |
| 20260902081806 | 57 | 165 | 0.0 | 1.0 | 0.00 | 0.00 | 0.00 | 68 | 1012.1 |
| 20260902080811 | 58 | 165 | 1.0 | 2.0 | 0.00 | 0.00 | 0.00 | 66 | 1011.9 |
| 20260902080806 | 57 | 165 | 0.0 | 2.0 | 0.00 | 0.00 | 0.00 | 67 | 1012.1 |
| 20260902075806 | 58 | 165 | 0.0 | 2.0 | 0.00 | 0.00 | 0.00 | 66 | 1011.9 |
| 20260902075306 | 58 | 165 | 0.0 | 2.0 | 0.00 | 0.00 | 0.00 | 66 | 1011.9 |
| 20260902074805 | 58 | 165 | 0.0 | 3.0 | 0.00 | 0.00 | 0.00 | 65 | 1011.9 |
| 20260902074304 | 58 | 165 | 0.0 | 3.0 | 0.00 | 0.00 | 0.00 | 65 | 1011.9 |
| 20260902073804 | 58 | 165 | 0.0 | 3.0 | 0.00 | 0.00 | 0.00 | 65 | 1011.9 |
| 20260902073303 | 58 | 165 | 1.0 | 3.0 | 0.00 | 0.00 | 0.00 | 65 | 1011.9 |
| 20260902072804 | 58 | 165 | 1.0 | 3.0 | 0.00 | 0.00 | 0.00 | 65 | 1011.9 |
| 20260902072310 | 58 | 166 | 1.0 | 4.0 | 0.00 | 0.00 | 0.00 | 64 | 1011.9 |
| 20260902071311 | 59 | 185 | 1.0 | 6.0 | 0.00 | 0.00 | 0.00 | 64 | 1011.9 |
| 20260902071306 | 59 | 185 | 1.0 | 4.0 | 0.00 | 0.00 | 0.00 | 65 | 1011.9 |
| 20260902070304 | 59 | 185 | 1.0 | 6.0 | 0.00 | 0.00 | 0.00 | 64 | 1012.0 |
| 20260902065802 | 59 | 190 | 1.0 | 4.0 | 0.00 | 0.00 | 0.00 | 64 | 1012.0 |
| 20260902065301 | 60 | 191 | 2.0 | 4.0 | 0.00 | 0.00 | 0.00 | 63 | 1012.0 |
| 20260902064802 | 60 | 158 | 2.0 | 8.0 | 0.00 | 0.00 | 0.00 | 63 | 1012.0 |
| 20260902064303 | 60 | 160 | 2.0 | 8.0 | 0.00 | 0.00 | 0.00 | 63 | 1012.0 |
| 20260902063803 | 60 | 185 | 1.0 | 8.0 | 0.00 | 0.00 | 0.00 | 61 | 1012.1 |
| 20260902063307 | 60 | 205 | 1.0 | 5.0 | 0.00 | 0.00 | 0.00 | 63 | 1012.2 |
| 20260902063303 | 60 | 222 | 1.0 | 6.0 | 0.00 | 0.00 | 0.00 | 62 | 1012.1 |
| 20260902062305 | 60 | 203 | 1.0 | 5.0 | 0.00 | 0.00 | 0.00 | 63 | 1012.3 |
| 20260902061804 | 60 | 193 | 2.0 | 8.0 | 0.00 | 0.00 | 0.00 | 64 | 1012.4 |
| 20260902061303 | 60 | 205 | 2.0 | 8.0 | 0.00 | 0.00 | 0.00 | 63 | 1012.4 |
| 20260902060802 | 60 | 207 | 2.0 | 8.0 | 0.00 | 0.00 | 0.00 | 65 | 1012.4 |
| 20260902060303 | 59 | 199 | 3.0 | 8.0 | 0.00 | 0.00 | 0.00 | 66 | 1012.6 |
| 20260902055801 | 59 | 205 | 3.0 | 8.0 | 0.00 | 0.00 | 0.00 | 66 | 1012.6 |
| 20260902055302 | 59 | 175 | 2.0 | 8.0 | 0.00 | 0.00 | 0.00 | 65 | 1012.6 |
| 20260902054932 | 60 | 199 | 2.0 | 8.0 | 0.00 | 0.00 | 0.00 | 62 | 1012.8 |
| 20260902054807 | 60 | 175 | 2.0 | 7.0 | 0.00 | 0.00 | 0.00 | 63 | 1012.7 |
| 20260902054801 | 60 | 192 | 2.0 | 7.0 | 0.00 | 0.00 | 0.00 | 64 | 1012.7 |
| 20260902053932 | 60 | 197 | 2.0 | 8.0 | 0.00 | 0.00 | 0.00 | 63 | 1012.8 |
| 20260902052803 | 60 | 211 | 2.0 | 6.0 | 0.00 | 0.00 | 0.00 | 64 | 1012.9 |
| 20260902052311 | 60 | 150 | 2.0 | 7.0 | 0.00 | 0.00 | 0.00 | 63 | 1012.9 |
| 20260902052306 | 60 | 194 | 2.0 | 7.0 | 0.00 | 0.00 | 0.00 | 63 | 1013.0 |
| 20260902051930 | 60 | 212 | 3.0 | 9.0 | 0.00 | 0.00 | 0.00 | 64 | 1013.0 |
| 20260902051302 | 60 | 198 | 2.0 | 9.0 | 0.00 | 0.00 | 0.00 | 65 | 1013.0 |
| 20260902050303 | 60 | 222 | 2.0 | 8.0 | 0.00 | 0.00 | 0.00 | 64 | 1013.1 |
| 20260902045801 | 60 | 203 | 3.0 | 9.0 | 0.00 | 0.00 | 0.00 | 64 | 1013.1 |
| 20260902045301 | 60 | 175 | 2.0 | 9.0 | 0.00 | 0.00 | 0.00 | 65 | 1013.1 |
| 20260902044300 | 59 | 175 | 3.0 | 10.0 | 0.00 | 0.00 | 0.00 | 64 | 1013.1 |
| 20260902043801 | 59 | 226 | 2.0 | 9.0 | 0.00 | 0.00 | 0.00 | 63 | 1013.2 |
| 20260902043306 | 59 | 190 | 3.0 | 10.0 | 0.00 | 0.00 | 0.00 | 64 | 1013.2 |
| 20260902043302 | 59 | 204 | 3.0 | 10.0 | 0.00 | 0.00 | 0.00 | 64 | 1013.2 |
| 20260902042926 | 59 | 194 | 3.0 | 9.0 | 0.00 | 0.00 | 0.00 | 66 | 1013.3 |
| 20260902042403 | 59 | 199 | 3.0 | 8.0 | 0.00 | 0.00 | 0.00 | 64 | 1013.3 |
| 20260902041303 | 59 | 251 | 3.0 | 10.0 | 0.00 | 0.00 | 0.00 | 65 | 1013.3 |
| 20260902041257 | 59 | 189 | 3.0 | 10.0 | 0.00 | 0.00 | 0.00 | 65 | 1013.2 |
| 20260902040925 | 59 | 191 | 3.0 | 10.0 | 0.00 | 0.00 | 0.00 | 65 | 1013.3 |
| 20260902040424 | 59 | 180 | 3.0 | 10.0 | 0.00 | 0.00 | 0.00 | 65 | 1013.3 |
| 20260902035259 | 60 | 180 | 2.0 | 9.0 | 0.00 | 0.00 | 0.00 | 65 | 1013.4 |
| 20260902034755 | 59 | 219 | 3.0 | 8.0 | 0.00 | 0.00 | 0.00 | 65 | 1013.5 |
| 20260902034256 | 59 | 180 | 2.0 | 8.0 | 0.00 | 0.00 | 0.00 | 66 | 1013.5 |
| 20260902033758 | 59 | 247 | 3.0 | 9.0 | 0.00 | 0.00 | 0.00 | 67 | 1013.4 |
| 20260902033256 | 59 | 233 | 4.0 | 9.0 | 0.00 | 0.00 | 0.00 | 67 | 1013.4 |
| 20260902032754 | 59 | 197 | 3.0 | 9.0 | 0.00 | 0.00 | 0.00 | 65 | 1013.6 |
| 20260902032259 | 59 | 193 | 3.0 | 10.0 | 0.00 | 0.00 | 0.00 | 66 | 1013.7 |
| 20260902032255 | 59 | 193 | 3.0 | 10.0 | 0.00 | 0.00 | 0.00 | 67 | 1013.7 |
| 20260902031252 | 58 | 166 | 3.0 | 9.0 | 0.00 | 0.00 | 0.00 | 67 | 1014.0 |
| 20260902030753 | 58 | 175 | 4.0 | 9.0 | 0.00 | 0.00 | 0.00 | 66 | 1014.0 |
| 20260902030251 | 58 | 197 | 3.0 | 8.0 | 0.00 | 0.00 | 0.00 | 66 | 1014.2 |
| 20260902025753 | 58 | 229 | 2.0 | 8.0 | 0.00 | 0.00 | 0.00 | 68 | 1014.2 |
| 20260902025253 | 58 | 221 | 3.0 | 8.0 | 0.00 | 0.00 | 0.00 | 70 | 1014.3 |
| 20260902024753 | 58 | 185 | 3.0 | 8.0 | 0.00 | 0.00 | 0.00 | 69 | 1014.4 |
| 20260902024252 | 58 | 185 | 2.0 | 8.0 | 0.00 | 0.00 | 0.00 | 69 | 1014.7 |
| 20260902023753 | 58 | 175 | 2.0 | 8.0 | 0.00 | 0.00 | 0.00 | 69 | 1014.8 |
| 20260902023249 | 58 | 189 | 2.0 | 7.0 | 0.00 | 0.00 | 0.00 | 69 | 1014.9 |
| 20260902022751 | 58 | 175 | 2.0 | 5.0 | 0.00 | 0.00 | 0.00 | 68 | 1015.0 |
| 20260902022258 | 58 | 260 | 2.0 | 8.0 | 0.00 | 0.00 | 0.00 | 70 | 1015.1 |
| 20260902022249 | 58 | 218 | 1.0 | 4.0 | 0.00 | 0.00 | 0.00 | 69 | 1015.0 |
| 20260902021917 | 58 | 161 | 2.0 | 8.0 | 0.00 | 0.00 | 0.00 | 69 | 1015.2 |
| 20260902020753 | 58 | 249 | 2.0 | 8.0 | 0.00 | 0.00 | 0.00 | 69 | 1015.3 |
| 20260902020251 | 58 | 221 | 3.0 | 8.0 | 0.00 | 0.00 | 0.00 | 69 | 1015.3 |
| 20260902015751 | 58 | 196 | 2.0 | 8.0 | 0.00 | 0.00 | 0.00 | 69 | 1015.4 |
| 20260902015248 | 58 | 258 | 2.0 | 8.0 | 0.00 | 0.00 | 0.00 | 68 | 1015.4 |
| 20260902014748 | 58 | 207 | 2.0 | 8.0 | 0.00 | 0.00 | 0.00 | 68 | 1015.4 |
| 20260902014247 | 58 | 185 | 2.0 | 8.0 | 0.00 | 0.00 | 0.00 | 69 | 1015.5 |
| 20260902013747 | 58 | 170 | 2.0 | 6.0 | 0.00 | 0.00 | 0.00 | 69 | 1015.5 |
| 20260902013249 | 58 | 212 | 2.0 | 6.0 | 0.00 | 0.00 | 0.00 | 68 | 1015.5 |
| 20260902012749 | 58 | 193 | 2.0 | 8.0 | 0.00 | 0.00 | 0.00 | 68 | 1015.6 |
| 20260902012247 | 58 | 202 | 2.0 | 8.0 | 0.00 | 0.00 | 0.00 | 67 | 1015.8 |
| 20260902011747 | 58 | 175 | 2.0 | 8.0 | 0.00 | 0.00 | 0.00 | 68 | 1015.7 |
| 20260902011249 | 58 | 185 | 2.0 | 8.0 | 0.00 | 0.00 | 0.00 | 69 | 1015.8 |
| 20260902010748 | 58 | 216 | 2.0 | 6.0 | 0.00 | 0.00 | 0.00 | 68 | 1015.9 |
| 20260902010247 | 58 | 237 | 2.0 | 9.0 | 0.00 | 0.00 | 0.00 | 68 | 1015.9 |
| 20260902005747 | 58 | 230 | 2.0 | 9.0 | 0.00 | 0.00 | 0.00 | 68 | 1016.0 |
| 20260902005249 | 58 | 244 | 2.0 | 7.0 | 0.00 | 0.00 | 0.00 | 70 | 1016.0 |
| 20260902004747 | 58 | 227 | 2.0 | 7.0 | 0.00 | 0.00 | 0.00 | 70 | 1016.1 |
| 20260902004254 | 58 | 224 | 2.0 | 5.0 | 0.00 | 0.00 | 0.00 | 70 | 1016.2 |
| 20260902004249 | 58 | 221 | 1.0 | 5.0 | 0.00 | 0.00 | 0.00 | 70 | 1016.1 |
| 20260902003911 | 58 | 256 | 2.0 | 9.0 | 0.00 | 0.00 | 0.00 | 69 | 1016.2 |
| 20260902002748 | 58 | 260 | 3.0 | 9.0 | 0.00 | 0.00 | 0.00 | 69 | 1016.2 |
| 20260902002248 | 58 | 215 | 2.0 | 6.0 | 0.00 | 0.00 | 0.00 | 68 | 1016.2 |
| 20260902001747 | 58 | 204 | 1.0 | 6.0 | 0.00 | 0.00 | 0.00 | 69 | 1016.3 |
| 20260902001249 | 58 | 256 | 1.0 | 8.0 | 0.00 | 0.00 | 0.00 | 69 | 1016.3 |
| 20260902000753 | 58 | 180 | 2.0 | 8.0 | 0.00 | 0.00 | 0.00 | 70 | 1016.4 |
| 20260902000749 | 58 | 200 | 2.0 | 8.0 | 0.00 | 0.00 | 0.00 | 69 | 1016.4 |
| 20260902000245 | 58 | 214 | 2.0 | 8.0 | 0.00 | 0.00 | 0.00 | 70 | 1016.4 |
| 20260901235242 | 57 | 191 | 2.0 | 8.0 | 0.00 | 0.00 | 0.00 | 71 | 1016.4 |
| 20260901234743 | 57 | 219 | 2.0 | 8.0 | 0.00 | 0.00 | 0.00 | 70 | 1016.5 |
| 20260901234245 | 57 | 180 | 1.0 | 6.0 | 0.00 | 0.00 | 0.00 | 71 | 1016.5 |
| 20260901233742 | 57 | 202 | 1.0 | 7.0 | 0.00 | 0.00 | 0.00 | 72 | 1016.5 |
| 20260901233246 | 57 | 227 | 2.0 | 10.0 | 0.00 | 0.00 | 0.00 | 72 | 1016.5 |
| 20260901233240 | 57 | 199 | 1.0 | 7.0 | 0.00 | 0.00 | 0.00 | 72 | 1016.5 |
| 20260901232905 | 57 | 253 | 1.0 | 8.0 | 0.00 | 0.00 | 0.00 | 72 | 1016.4 |
| 20260901232237 | 57 | 224 | 2.0 | 10.0 | 0.00 | 0.00 | 0.00 | 72 | 1016.5 |
| 20260901231235 | 57 | 205 | 1.0 | 7.0 | 0.00 | 0.00 | 0.00 | 73 | 1016.5 |
| 20260901230735 | 57 | 280 | 0.0 | 3.0 | 0.00 | 0.00 | 0.00 | 73 | 1016.4 |
| 20260901230235 | 57 | 286 | 0.0 | 3.0 | 0.00 | 0.00 | 0.00 | 74 | 1016.5 |
| 20260901225734 | 56 | 306 | 1.0 | 7.0 | 0.00 | 0.00 | 0.00 | 74 | 1016.5 |
| 20260901225239 | 56 | 210 | 1.0 | 6.0 | 0.00 | 0.00 | 0.00 | 74 | 1016.5 |
| 20260901225233 | 56 | 264 | 1.0 | 7.0 | 0.00 | 0.00 | 0.00 | 73 | 1016.5 |
| 20260901224233 | 56 | 222 | 1.0 | 7.0 | 0.00 | 0.00 | 0.00 | 74 | 1016.4 |
| 20260901223733 | 56 | 220 | 1.0 | 7.0 | 0.00 | 0.00 | 0.00 | 74 | 1016.4 |
| 20260901223236 | 56 | 262 | 1.0 | 9.0 | 0.00 | 0.00 | 0.00 | 74 | 1016.5 |
| 20260901223230 | 56 | 269 | 1.0 | 9.0 | 0.00 | 0.00 | 0.00 | 74 | 1016.5 |
| 20260901222230 | 56 | 205 | 1.0 | 6.0 | 0.00 | 0.00 | 0.00 | 75 | 1016.4 |
| 20260901221731 | 56 | 238 | 1.0 | 6.0 | 0.00 | 0.00 | 0.00 | 75 | 1016.4 |
| 20260901221232 | 56 | 203 | 1.0 | 7.0 | 0.00 | 0.00 | 0.00 | 75 | 1016.2 |
| 20260901220731 | 55 | 230 | 2.0 | 11.0 | 0.00 | 0.00 | 0.00 | 76 | 1016.2 |
| 20260901220231 | 55 | 235 | 1.0 | 11.0 | 0.00 | 0.00 | 0.00 | 76 | 1016.1 |
| 20260901215732 | 55 | 197 | 1.0 | 7.0 | 0.00 | 0.00 | 0.00 | 77 | 1016.1 |
| 20260901214732 | 55 | 262 | 1.0 | 8.0 | 0.00 | 0.00 | 0.00 | 78 | 1015.9 |
| 20260901214229 | 55 | 193 | 1.0 | 8.0 | 0.00 | 0.00 | 0.00 | 78 | 1015.8 |
| 20260901213729 | 55 | 241 | 0.0 | 5.0 | 0.00 | 0.00 | 0.00 | 78 | 1015.8 |
| 20260901213229 | 55 | 194 | 1.0 | 9.0 | 0.00 | 0.00 | 0.00 | 78 | 1015.7 |
| 20260901212728 | 55 | 193 | 1.0 | 9.0 | 0.00 | 0.00 | 0.00 | 79 | 1015.6 |
| 20260901212230 | 55 | 224 | 0.0 | 6.0 | 0.00 | 0.00 | 0.00 | 80 | 1015.6 |
| 20260901211730 | 55 | 214 | 0.0 | 5.0 | 0.00 | 0.00 | 0.00 | 81 | 1015.7 |
| 20260901211230 | 55 | 252 | 0.0 | 5.0 | 0.00 | 0.00 | 0.00 | 81 | 1015.7 |